Location: Kapuskasing
(49.3803°N, 82.4001°W)
Time: 14:32:58
(UTC-05:00)

RS-44 - Pass Details

Date: 16 December 2025
Orbit: 1174 x 1511 km, 82.5° (Epoch: 21 January)

Event Time Altitude Azimuth Distance (km) Brightness Sun altitude
Exits shadow 04:25:27 13° 347° (NNW) 3,379 ? -36.8°
Drops below altitude 10° 04:26:30 10° 353° (N) 3,594 ? -36.6°
Sets 04:30:17 0° 9° (N) 4,528 ? -36.0°
